FFT1283 KLAS-KONT

Flight info

Callsign FFT1283
Flight time N/A
Altitude 24000
Route RADYR2 SLVRR FEYLA JCKIE2
Aircraft A321/M-SDE3FGHIRWY/LB1

Departure

Time 2026-05-06 17:23
Airport Harry Reid International Airport (KLAS)

Arrival

Time N/A
Airport Ontario International Airport (KONT)
Time Latitude Longitude Altitude Speed Heading
2026-05-06 17:09 36.08521 -115.13741 2192 ft 0 kts
2026-05-06 17:13 36.08507 -115.13741 2192 ft 2 kts
2026-05-06 17:13 36.08492 -115.13742 2192 ft 2 kts 15°
2026-05-06 17:13 36.08478 -115.13750 2192 ft 2 kts 40°
2026-05-06 17:14 36.08469 -115.13764 2192 ft 2 kts 64°
2026-05-06 17:14 36.08464 -115.13781 2192 ft 1 kts 86°
2026-05-06 17:14 36.08465 -115.13789 2192 ft 1 kts 92°
2026-05-06 17:14 36.08465 -115.13792 2192 ft 0 kts 90°
2026-05-06 17:17 36.08465 -115.13791 2192 ft 0 kts 90°
2026-05-06 17:17 36.08465 -115.13771 2192 ft 5 kts 90°
2026-05-06 17:17 36.08465 -115.13695 2192 ft 10 kts 90°
2026-05-06 17:17 36.08465 -115.13593 2192 ft 12 kts 90°
2026-05-06 17:18 36.08464 -115.13479 2192 ft 14 kts 99°
2026-05-06 17:18 36.08401 -115.13381 2192 ft 15 kts 135°
2026-05-06 17:18 36.08321 -115.13298 2192 ft 14 kts 161°
2026-05-06 17:18 36.08219 -115.13294 2192 ft 14 kts 180°
2026-05-06 17:19 36.08116 -115.13294 2192 ft 14 kts 180°
2026-05-06 17:19 36.08013 -115.13293 2192 ft 14 kts 180°
2026-05-06 17:19 36.07910 -115.13293 2192 ft 14 kts 180°
2026-05-06 17:19 36.07833 -115.13261 2192 ft 12 kts 115°
2026-05-06 17:20 36.07827 -115.13153 2192 ft 14 kts 90°
2026-05-06 17:20 36.07827 -115.13019 2192 ft 16 kts 90°
2026-05-06 17:20 36.07827 -115.12864 2192 ft 19 kts 90°
2026-05-06 17:20 36.07827 -115.12690 2192 ft 20 kts 90°
2026-05-06 17:21 36.07827 -115.12521 2192 ft 19 kts 90°
2026-05-06 17:21 36.07827 -115.12359 2192 ft 17 kts 90°
2026-05-06 17:21 36.07801 -115.12231 2192 ft 15 kts 129°
2026-05-06 17:21 36.07729 -115.12138 2192 ft 14 kts 152°
2026-05-06 17:22 36.07645 -115.12169 2192 ft 14 kts 251°
2026-05-06 17:22 36.07642 -115.12301 2192 ft 19 kts 270°
2026-05-06 17:22 36.07642 -115.12724 2192 ft 84 kts 270°
2026-05-06 17:22 36.07640 -115.13710 2193 ft 144 kts 270°
2026-05-06 17:23 36.07639 -115.15158 2332 ft 179 kts 270°
2026-05-06 17:23 36.07639 -115.16685 2911 ft 182 kts 270°
2026-05-06 17:23 36.07642 -115.18258 3574 ft 184 kts 270°
2026-05-06 17:23 36.07639 -115.19828 4166 ft 190 kts 270°
2026-05-06 17:24 36.07582 -115.21537 4601 ft 207 kts 264°
2026-05-06 17:24 36.07335 -115.23347 4950 ft 220 kts 261°
2026-05-06 17:24 36.06838 -115.25177 5190 ft 239 kts 239°
2026-05-06 17:24 36.05567 -115.26627 5422 ft 261 kts 207°
2026-05-06 17:25 36.03791 -115.27435 5789 ft 277 kts 199°
2026-05-06 17:25 36.01938 -115.28214 6336 ft 285 kts 200°
2026-05-06 17:25 36.00082 -115.29006 6975 ft 289 kts 198°
2026-05-06 17:25 35.98125 -115.29675 7601 ft 295 kts 193°
2026-05-06 17:26 35.96100 -115.30196 8215 ft 300 kts 191°
2026-05-06 17:26 35.94015 -115.30703 8838 ft 306 kts 191°
2026-05-06 17:26 35.92247 -115.31130 9364 ft 309 kts 191°
2026-05-06 17:26 35.90133 -115.31644 10006 ft 313 kts 191°
2026-05-06 17:27 35.87973 -115.32169 10539 ft 322 kts 191°
2026-05-06 17:27 35.85725 -115.32718 10860 ft 338 kts 191°
2026-05-06 17:27 35.83386 -115.33289 11355 ft 346 kts 191°
2026-05-06 17:27 35.81021 -115.33871 11984 ft 349 kts 191°
2026-05-06 17:28 35.78634 -115.34456 12619 ft 353 kts 191°
2026-05-06 17:28 35.76196 -115.35053 13239 ft 356 kts 191°
2026-05-06 17:28 35.73788 -115.35641 13861 ft 358 kts 191°
2026-05-06 17:28 35.71345 -115.36240 14452 ft 360 kts 191°
2026-05-06 17:29 35.68871 -115.36847 15028 ft 363 kts 191°
2026-05-06 17:29 35.66379 -115.37457 15569 ft 367 kts 190°
2026-05-06 17:29 35.63873 -115.38068 16115 ft 370 kts 191°
2026-05-06 17:29 35.61427 -115.39008 16583 ft 375 kts 206°
2026-05-06 17:30 35.59272 -115.40819 17089 ft 377 kts 225°
2026-05-06 17:30 35.57481 -115.43150 17608 ft 378 kts 230°
2026-05-06 17:30 35.55724 -115.45602 18065 ft 383 kts 231°
2026-05-06 17:30 35.53978 -115.48047 18540 ft 386 kts 231°
2026-05-06 17:31 35.52174 -115.50538 19026 ft 389 kts 230°
2026-05-06 17:31 35.50381 -115.52986 19485 ft 392 kts 230°
2026-05-06 17:31 35.48535 -115.55492 19928 ft 396 kts 230°
2026-05-06 17:31 35.46691 -115.57981 20372 ft 399 kts 230°
2026-05-06 17:32 35.44796 -115.60534 20839 ft 401 kts 230°
2026-05-06 17:32 35.42925 -115.63049 21276 ft 404 kts 230°
2026-05-06 17:32 35.41031 -115.65597 21688 ft 407 kts 229°
2026-05-06 17:32 35.39120 -115.68167 22115 ft 410 kts 229°
2026-05-06 17:33 35.37200 -115.70746 22536 ft 412 kts 229°
2026-05-06 17:33 35.35263 -115.73344 22908 ft 415 kts 229°
2026-05-06 17:33 35.33298 -115.75974 23313 ft 418 kts 229°
2026-05-06 17:33 35.31331 -115.78601 23702 ft 420 kts 229°
2026-05-06 17:34 35.29360 -115.81234 24037 ft 424 kts 229°
2026-05-06 17:34 35.27374 -115.83882 24071 ft 424 kts 229°
2026-05-06 17:34 35.25378 -115.86541 24075 ft 424 kts 229°
2026-05-06 17:34 35.23400 -115.89174 24071 ft 423 kts 229°
2026-05-06 17:35 35.21414 -115.91827 24070 ft 424 kts 229°
2026-05-06 17:35 35.19415 -115.94518 24070 ft 423 kts 229°
2026-05-06 17:35 35.17468 -115.97146 24063 ft 423 kts 229°
2026-05-06 17:36 35.13490 -116.02504 24062 ft 423 kts 229°
2026-05-06 17:36 35.11527 -116.05144 24059 ft 423 kts 229°
2026-05-06 17:36 35.09534 -116.07822 24061 ft 424 kts 229°
2026-05-06 17:36 35.07560 -116.10474 24066 ft 424 kts 229°
2026-05-06 17:37 35.05582 -116.13126 24060 ft 423 kts 229°
2026-05-06 17:37 35.03610 -116.15768 24060 ft 424 kts 229°
2026-05-06 17:37 35.01629 -116.18418 24056 ft 424 kts 229°
2026-05-06 17:37 34.99642 -116.21075 24059 ft 424 kts 229°
2026-05-06 17:38 34.97646 -116.23745 23965 ft 424 kts 229°
2026-05-06 17:38 34.95669 -116.26388 23676 ft 422 kts 229°
2026-05-06 17:38 34.93704 -116.29009 23339 ft 419 kts 229°
2026-05-06 17:38 34.91742 -116.31628 23063 ft 417 kts 229°
2026-05-06 17:39 34.89786 -116.34233 22710 ft 415 kts 229°